TimeCDT,TemperatureF,Dew PointF,Humidity,Sea Level PressureIn,VisibilityMPH,Wind Direction,Wind SpeedMPH,Gust SpeedMPH,PrecipitationIn,Events,Conditions,WindDirDegrees,DateUTC
12:15 AM,-9999,-9999,N/A,29.96,10.0,South,5.8,-,N/A,,Clear,170,2013-09-18 05:15:00
12:35 AM,-9999,-9999,N/A,29.97,10.0,South,3.5,-,N/A,,Clear,180,2013-09-18 05:35:00
12:55 AM,-9999,-9999,N/A,29.97,10.0,South,4.6,-,N/A,,Clear,170,2013-09-18 05:55:00
1:15 AM,-9999,-9999,N/A,29.96,10.0,South,6.9,-,N/A,,Clear,170,2013-09-18 06:15:00
1:35 AM,-9999,-9999,N/A,29.96,10.0,South,5.8,-,N/A,,Clear,180,2013-09-18 06:35:00
1:55 AM,-9999,-9999,N/A,29.96,10.0,South,5.8,-,N/A,,Clear,170,2013-09-18 06:55:00
2:15 AM,-9999,-9999,N/A,29.95,10.0,SSE,5.8,-,N/A,,Clear,160,2013-09-18 07:15:00
2:35 AM,-9999,-9999,N/A,29.95,10.0,SSE,5.8,-,N/A,,Clear,160,2013-09-18 07:35:00
2:55 AM,-9999,-9999,N/A,29.95,10.0,South,3.5,-,N/A,,Clear,180,2013-09-18 07:55:00
3:15 AM,-9999,-9999,N/A,29.95,10.0,South,4.6,-,N/A,,Clear,170,2013-09-18 08:15:00
3:35 AM,-9999,-9999,N/A,29.94,10.0,SSE,3.5,-,N/A,,Clear,160,2013-09-18 08:35:00
3:55 AM,-9999,-9999,N/A,29.94,7.0,SSE,4.6,-,N/A,,Clear,160,2013-09-18 08:55:00
4:15 AM,-9999,-9999,N/A,29.94,7.0,South,4.6,-,N/A,,Clear,170,2013-09-18 09:15:00
4:35 AM,-9999,-9999,N/A,29.93,7.0,SSE,5.8,-,N/A,,Clear,160,2013-09-18 09:35:00
4:55 AM,-9999,-9999,N/A,29.93,7.0,SSE,4.6,-,N/A,,Clear,160,2013-09-18 09:55:00
5:15 AM,-9999,-9999,N/A,29.93,7.0,South,5.8,-,N/A,,Clear,170,2013-09-18 10:15:00
5:35 AM,-9999,-9999,N/A,29.93,7.0,SSE,5.8,-,N/A,,Clear,160,2013-09-18 10:35:00
5:55 AM,-9999,-9999,N/A,29.93,7.0,SSE,5.8,-,N/A,,Clear,160,2013-09-18 10:55:00
6:20 AM,71.6,68.0,88,29.93,10.0,SSE,9.2,-,N/A,,Mostly Cloudy,160,2013-09-18 11:20:00
6:50 AM,71.6,69.8,94,29.92,10.0,SSE,9.2,-,N/A,,Mostly Cloudy,160,2013-09-18 11:50:00
7:50 AM,71.6,71.6,100,29.94,10.0,SE,11.5,-,N/A,,Mostly Cloudy,140,2013-09-18 12:50:00
8:50 AM,73.4,69.8,88,29.94,10.0,SSE,11.5,-,N/A,,Mostly Cloudy,150,2013-09-18 13:50:00
9:50 AM,77.0,68.0,74,29.96,10.0,SSE,13.8,-,N/A,,Mostly Cloudy,160,2013-09-18 14:50:00
10:50 AM,84.2,68.0,58,29.96,10.0,SSE,15.0,23.0,N/A,,Mostly Cloudy,160,2013-09-18 15:50:00
11:50 AM,87.8,69.8,55,29.94,10.0,South,17.3,27.6,N/A,,Scattered Clouds,180,2013-09-18 16:50:00
12:50 PM,89.6,68.0,49,29.92,10.0,South,23.0,31.1,N/A,,Scattered Clouds,170,2013-09-18 17:50:00
1:50 PM,91.4,64.4,41,29.90,10.0,South,28.8,36.8,N/A,,Scattered Clouds,180,2013-09-18 18:50:00
2:50 PM,93.2,64.4,38,29.88,10.0,South,28.8,36.8,N/A,,Scattered Clouds,170,2013-09-18 19:50:00
3:55 PM,95.0,62.6,34,29.85,10.0,South,26.5,34.5,N/A,,Partly Cloudy,170,2013-09-18 20:55:00
5:50 PM,91.4,62.6,38,29.83,10.0,South,23.0,29.9,N/A,,Partly Cloudy,170,2013-09-18 22:50:00
6:50 PM,89.6,60.8,38,29.84,10.0,South,17.3,25.3,N/A,,Clear,170,2013-09-18 23:50:00
7:50 PM,82.4,62.6,51,29.83,10.0,SSE,15.0,20.7,N/A,,Partly Cloudy,160,2013-09-19 00:50:00
8:50 PM,77.0,64.4,65,29.85,10.0,SE,13.8,-,N/A,,Partly Cloudy,140,2013-09-19 01:50:00
9:15 PM,75.2,62.6,65,29.86,10.0,SSE,5.8,-,N/A,,Clear,160,2013-09-19 02:15:00
9:35 PM,73.4,62.6,69,29.86,10.0,SSE,5.8,-,N/A,,Clear,160,2013-09-19 02:35:00
9:55 PM,71.6,62.6,73,29.87,10.0,SSE,5.8,-,N/A,,Clear,160,2013-09-19 02:55:00
10:15 PM,73.4,64.4,73,29.87,10.0,SSE,8.1,-,N/A,,Clear,160,2013-09-19 03:15:00
10:35 PM,73.4,64.4,73,29.87,10.0,SSE,8.1,-,N/A,,Clear,160,2013-09-19 03:35:00
10:55 PM,73.4,64.4,73,29.87,10.0,SSE,8.1,-,N/A,,Clear,160,2013-09-19 03:55:00
11:15 PM,73.4,64.4,73,29.87,10.0,South,8.1,-,N/A,,Clear,170,2013-09-19 04:15:00
11:35 PM,71.6,64.4,78,29.87,10.0,South,9.2,-,N/A,,Clear,170,2013-09-19 04:35:00
11:55 PM,71.6,64.4,78,29.87,10.0,South,9.2,-,N/A,,Clear,180,2013-09-19 04:55:00